SV1KWZ-1 Weather Reports


Display with metric or nautical units.
time (UTC)temp
F
wind
direction
speed
MPH
gust
MPH
rain 1hr
in
rain 24hr
in
rain mn
in
humidity
%
barometer
mb
20260902060603 89 64 2.0 8.0 0.00 0.00 0.00 28 1022.5
20260902060303 89 62 2.0 6.0 0.00 0.00 0.00 28 1022.5
20260902060003 88 59 2.0 6.0 0.00 0.00 0.00 29 1022.6
20260902055917 88 60 2.0 6.0 0.00 0.00 0.00 29 1022.8
20260902055403 88 82 2.0 4.0 0.00 0.00 0.00 31 1022.7
20260902055103 88 112 1.0 3.0 0.00 0.00 0.00 33 1022.8
20260902054803 88 135 1.0 3.0 0.00 0.00 0.00 33 1022.8
20260902054503 89 132 1.0 3.0 0.00 0.00 0.00 33 1022.8
20260902054203 89 148 0.0 1.0 0.00 0.00 0.00 33 1022.6
20260902054118 89 148 0.0 1.0 0.00 0.00 0.00 33 1022.8
20260902053818 88 148 0.0 1.0 0.00 0.00 0.00 34 1022.6
20260902053303 88 149 0.0 1.0 0.00 0.00 0.00 33 1022.6
20260902053004 87 151 0.0 1.0 0.00 0.00 0.00 35 1022.7
20260902052703 87 158 0.0 1.0 0.00 0.00 0.00 36 1022.6
20260902052404 87 153 0.0 1.0 0.00 0.00 0.00 36 1022.8
20260902052103 86 155 0.0 1.0 0.00 0.00 0.00 37 1022.8
20260902051803 86 200 1.0 2.0 0.00 0.00 0.00 37 1022.6
20260902051503 85 214 1.0 2.0 0.00 0.00 0.00 38 1022.8
20260902051203 84 233 1.0 2.0 0.00 0.00 0.00 39 1023.0
20260902050903 85 255 1.0 2.0 0.00 0.00 0.00 39 1022.5
20260902050817 84 304 1.0 2.0 0.00 0.00 0.00 39 1022.7
20260902050303 84 354 1.0 2.0 0.00 0.00 0.00 39 1022.8
20260902050006 84 349 1.0 2.0 0.00 0.00 0.00 40 1022.6
20260902045703 84 234 0.0 1.0 0.00 0.00 0.00 40 1022.6
20260902045403 84 233 0.0 1.0 0.00 0.00 0.00 41 1022.7
20260902045103 84 233 0.0 1.0 0.00 0.00 0.00 41 1022.6
20260902044803 84 233 0.0 1.0 0.00 0.00 0.00 41 1022.8
20260902044503 83 230 0.0 2.0 0.00 0.00 0.00 42 1022.9
20260902044203 83 220 1.0 2.0 0.00 0.00 0.00 42 1022.5
20260902043903 83 204 1.0 2.0 0.00 0.00 0.00 42 1022.5
20260902043603 83 135 0.0 2.0 0.00 0.00 0.00 42 1022.7
20260902043303 83 87 0.0 1.0 0.00 0.00 0.00 42 1022.7
20260902043003 83 64 1.0 1.0 0.00 0.00 0.00 42 1022.5
20260902042917 82 56 1.0 1.0 0.00 0.00 0.00 42 1022.5
20260902042403 82 33 0.0 1.0 0.00 0.00 0.00 44 1022.5
20260902042103 82 16 0.0 1.0 0.00 0.00 0.00 43 1022.5
20260902041803 82 3 0.0 1.0 0.00 0.00 0.00 44 1022.6
20260902041503 82 357 0.0 1.0 0.00 0.00 0.00 44 1022.4
20260902041203 82 330 0.0 1.0 0.00 0.00 0.00 44 1022.4
20260902040903 82 348 0.0 1.0 0.00 0.00 0.00 44 1022.6
20260902040603 82 334 0.0 1.0 0.00 0.00 0.00 44 1022.7
20260902040303 82 237 1.0 3.0 0.00 0.00 0.00 44 1022.7
20260902040003 82 241 1.0 3.0 0.00 0.00 0.00 44 1022.5
20260902035916 82 241 1.0 3.0 0.00 0.00 0.00 44 1022.4
20260902035403 82 248 0.0 3.0 0.00 0.00 0.00 44 1022.4
20260902035103 82 0 0.0 0.0 0.00 0.00 0.00 44 1022.4
20260902034803 82 0 0.0 0.0 0.00 0.00 0.00 43 1022.4
20260902034503 82 0 0.0 0.0 0.00 0.00 0.00 44 1022.2
20260902034417 82 0 0.0 0.0 0.00 0.00 0.00 43 1022.2
20260902034117 82 0 0.0 0.0 0.00 0.00 0.00 43 1022.3
20260902033603 82 0 0.0 0.0 0.00 0.00 0.00 44 1022.3
20260902033303 82 0 0.0 0.0 0.00 0.00 0.00 44 1022.2
20260902033003 82 232 0.0 2.0 0.00 0.00 0.00 43 1022.1
20260902032703 82 241 1.0 2.0 0.00 0.00 0.00 43 1022.3
20260902032403 82 241 1.0 2.0 0.00 0.00 0.00 43 1022.3
20260902032103 82 241 1.0 2.0 0.00 0.00 0.00 43 1022.2
20260902031803 82 340 0.0 1.0 0.00 0.00 0.00 42 1022.4
20260902031503 82 341 0.0 1.0 0.00 0.00 0.00 42 1022.2
20260902031203 82 341 0.0 1.0 0.00 0.00 0.00 42 1022.3
20260902030903 82 341 0.0 1.0 0.00 0.00 0.00 42 1022.4
20260902030817 82 341 0.0 1.0 0.00 0.00 0.00 42 1022.4
20260902030303 83 348 0.0 1.0 0.00 0.00 0.00 41 1022.1
20260902030004 83 36 0.0 1.0 0.00 0.00 0.00 42 1022.3
20260902025703 83 357 1.0 1.0 0.00 0.00 0.00 42 1021.9
20260902025403 83 25 1.0 1.0 0.00 0.00 0.00 41 1022.3
20260902025318 83 24 1.0 1.0 0.00 0.00 0.00 42 1021.9
20260902025017 83 359 1.0 1.0 0.00 0.00 0.00 43 1021.9
20260902024503 82 18 0.0 1.0 0.00 0.00 0.00 42 1022.0
20260902024203 83 10 1.0 2.0 0.00 0.00 0.00 42 1022.0
20260902024117 83 6 1.0 2.0 0.00 0.00 0.00 42 1022.0
20260902023603 83 336 1.0 3.0 0.00 0.00 0.00 42 1022.0
20260902023303 83 317 1.0 3.0 0.00 0.00 0.00 42 1022.1
20260902023003 83 314 1.0 3.0 0.00 0.00 0.00 42 1022.1
20260902022703 83 322 1.0 3.0 0.00 0.00 0.00 41 1022.0
20260902022618 83 320 1.0 3.0 0.00 0.00 0.00 41 1022.0
20260902022317 83 318 2.0 3.0 0.00 0.00 0.00 41 1022.2
20260902021803 83 301 1.0 3.0 0.00 0.00 0.00 40 1022.0
20260902021503 83 315 1.0 2.0 0.00 0.00 0.00 40 1022.4
20260902021203 83 325 1.0 3.0 0.00 0.00 0.00 40 1022.0
20260902020903 83 330 1.0 4.0 0.00 0.00 0.00 40 1022.1
20260902020603 83 332 2.0 4.0 0.00 0.00 0.00 39 1022.2
20260902020303 84 331 2.0 4.0 0.00 0.00 0.00 39 1022.0
20260902020218 84 332 2.0 4.0 0.00 0.00 0.00 39 1021.9
20260902015703 83 351 1.0 3.0 0.00 0.00 0.00 39 1022.4
20260902015403 83 356 1.0 3.0 0.00 0.00 0.00 39 1022.1
20260902015317 83 3 1.0 3.0 0.00 0.00 0.00 39 1022.3
20260902014803 83 1 1.0 3.0 0.00 0.00 0.00 39 1022.4
20260902014503 83 360 1.0 3.0 0.00 0.00 0.00 39 1021.9
20260902014203 83 354 1.0 4.0 0.00 0.00 0.00 41 1022.1
20260902014116 83 352 1.0 4.0 0.00 0.00 0.00 41 1022.4
20260902013603 83 334 0.0 4.0 0.00 0.00 0.00 41 1022.1
20260902013303 83 344 0.0 2.0 0.00 0.00 0.00 43 1022.1
20260902013003 83 10 0.0 2.0 0.00 0.00 0.00 43 1022.3
20260902012703 83 1 0.0 2.0 0.00 0.00 0.00 43 1022.3
20260902012403 83 338 1.0 2.0 0.00 0.00 0.00 42 1022.0
20260902012103 83 321 1.0 2.0 0.00 0.00 0.00 42 1022.2
20260902011803 83 313 1.0 2.0 0.00 0.00 0.00 41 1022.2
20260902011503 84 314 1.0 2.0 0.00 0.00 0.00 41 1022.2